Regional Weather Roundup
Issued by NWS

Home | Current Version | Previous Version | Graphics & Text | Print | Product List | Glossary On
Versions: 1 2 3 4 5 6 7 8 9 10 11 12 13 14 15 16 17 18 19 20 21 22 23 24 25 26 27 28 29 30 31 32 33 34 35 36 37 38 39 40 41 42 43 44 45 46 47 48 49 50
000
ASUS43 KLOT 042108
RWRIL

ILLINOIS REGIONAL WEATHER ROUNDUP
NATIONAL WEATHER SERVICE CHICAGO/ROMEOVILLE IL
400 PM CDT WED MAY 04 2016

NOTE: "FAIR" INDICATES FEW OR NO CLOUDS BELOW 12,000 FEET WITH NO
SIGNIFICANT WEATHER AND/OR OBSTRUCTIONS TO VISIBILITY.

* THESE STATIONS ARE NOT UNDER NWS QUALITY CONTROL. THEY ALSO MAY NOT
  REPORT WEATHER SUCH AS PRECIPITATION OR FOG.

ILZ001-002-007-009-015-016-024-042200-
NORTHWEST ILLINOIS

CITY           SKY/WX    TMP DP  RH WIND       PRES   REMARKS
MOLINE         MOSUNNY   63  34  33 NW17G26   29.84S
STERLING*      PTSUNNY   61  37  41 NW15      29.83R
SAVANNA*       PTSUNNY   62  33  34 N17G23    29.83S
$$

ILZ003-004-008-010-011-017-018-042200-
NORTH CENTRAL ILLINOIS

CITY           SKY/WX    TMP DP  RH WIND       PRES   REMARKS
ROCKFORD       CLOUDY    59  36  42 N17       29.83S
FREEPORT*      CLOUDY    58  35  42 N16G23    29.83S
ROCHELLE*      CLOUDY    56  41  55 N18       29.82S
DE KALB*       CLOUDY    54  42  63 N14       29.82S
$$

ILZ005-006-012>014-019>023-042200-
NORTHEAST ILLINOIS

CITY           SKY/WX    TMP DP  RH WIND       PRES   REMARKS
CHICAGO-OHARE  CLOUDY    48  37  65 N7        29.80S
CHICAGO-MIDWAY CLOUDY    47  35  63 N14       29.81R
AURORA         CLOUDY    53  40  61 N14       29.81S
LANSING*       CLOUDY    45  37  72 N15G21    29.81R
JOLIET*        CLOUDY    54  38  56 N13G21    29.81S
WAUKEGAN       CLOUDY    48  37  65 N7        29.80S
DUPAGE AIRPORT CLOUDY    52  37  56 N13       29.79F
KANKAKEE*      CLOUDY    53  38  57 N15G22    29.81R
WHEELING       CLOUDY    49  38  65 VRB5      29.81F
MORRIS*        CLOUDY    54  40  59 N8G17     29.80S
ROMEOVILLE*    CLOUDY    51  37  57 N18G25    29.81R
NORTHERLY ISL    N/A     44  36  73 MISG        N/A
NORTHERLY ISL    N/A     44  36  73 MISG        N/A
$$

LMZ740>746-042200-
SOUTHERN LAKE MICHIGAN

STATION/POSITION SKY/WX   TEMP    WIND        PRES    VSBY  WAVE
                          AIR SEA DIR/SP/G                  HT/PER
                          (F)     (DEG/KT/KT) (MB)    (MI)  (FT/S)
SOUTHERN BUOY              41 40  360/ 21/ 27 1007.8R         7/ 7
WILMETTE HARBOR            42 44   30/ 12/ 16   N/A           5/ 6
HARRISON CRIB              44     360/ 21/ 24   N/A
BURNHAM HARBOR             45     350/  9/ 17   N/A
CALUMET HARBOR             45     330/ 15/ 21 1009.0R
BURNS HARBOR               44     360/ 22     1009.5R
MICHIGAN CITY              43     320/ 24/ 27   N/A
ST. JOSEPH                 43 47                N/A          10/ 8
$$

ILZ025>027-034>036-040-047-049-050-058-095>099-042200-
WEST-CENTRAL ILLINOIS

CITY           SKY/WX    TMP DP  RH WIND       PRES   REMARKS
QUINCY         MOSUNNY   62  35  36 NW21G26   29.89S
GALESBURG*     PTSUNNY   60  36  40 NW18G25   29.85F
MACOMB*        MOSUNNY   63  35  34 N18G31    29.88F
JACKSONVILLE*  PTSUNNY   62  36  37 NW18G29   29.85S
PITTSFIELD*    MOSUNNY   63  39  41 NW18G26   29.88S
$$

ILZ028>032-037-038-041>044-048-051>054-059>061-042200-
CENTRAL ILLINOIS

CITY           SKY/WX    TMP DP  RH WIND       PRES   REMARKS
PONTIAC        CLOUDY    57  43  59 N20G26    29.83S
BLOOMINGTON    PTSUNNY   56  41  57 N20       29.83S
DECATUR        CLOUDY    57  40  52 N22G29    29.83R
PEORIA         CLOUDY    59  36  42 NW14G23   29.84F
LACON*         CLOUDY    57  38  49 N15       29.82F
LINCOLN*       CLOUDY    58  41  53 N14       29.84S
SPRINGFIELD    CLOUDY    60  38  43 N17G23    29.85R
TAYLORVILLE    CLOUDY    59  40  49 N24       29.84R
$$

ILZ033-039-045-046-055>057-062-063-042200-
EAST-CENTRAL ILLINOIS

CITY           SKY/WX    TMP DP  RH WIND       PRES   REMARKS
CHAMPAIGN      CLOUDY    55  40  56 N22G29    29.80R
RANTOUL*       CLOUDY    56  41  55 N23       29.80R
MATTOON        CLOUDY    58  39  49 N26G32    29.79R
PARIS*         CLOUDY    55  44  67 NW12G23   29.79R
$$

ILZ079-100>102-042200-
SOUTHWEST ILLINOIS

CITY           SKY/WX    TMP DP  RH WIND       PRES   REMARKS
ALTON          PTSUNNY   63  37  39 N15G23    29.84S
BELLEVILLE     MOSUNNY   65  42  42 N14G24    29.81S
CAHOKIA*       PTSUNNY   66  40  38 N18G29    29.83S
SPARTA*        PTSUNNY   64  44  49 N14G20    29.82S
$$

ILZ064>066-069>071-074>076-080>082-084>086-088>090-092>094-042200-
SOUTH-CENTRAL ILLINOIS

CITY           SKY/WX    TMP DP  RH WIND       PRES   REMARKS
CARBONDALE     MOSUNNY   66  42  41 NW16G24   29.80S
CAIRO*         MOSUNNY   70  42  36 N18G24    29.77F
EFFINGHAM*     PTSUNNY   61  44  54 NW21G33   29.81S
MARION         PTSUNNY   66  41  39 NW10G22   29.80S
MT. VERNON     MOSUNNY   63  41  45 NW7G21    29.81R
CENTRALIA*     PTSUNNY   63  45  51 N21       29.80R
SALEM*         PTSUNNY   63  45  51 N16       29.81R
METROPOLIS*    MOSUNNY   69  46  43 NW13G25   29.78S
$$

ILZ067-068-072-073-078-083-087-091-042200-
SOUTHEAST ILLINOIS

CITY           SKY/WX    TMP DP  RH WIND       PRES   REMARKS
LAWRENCEVILLE  PTSUNNY   60  46  59 NW10      29.77R
FLORA*         PTSUNNY   59  47  64 NW6       29.80F
FAIRFIELD*     CLOUDY    56  46  69 N7        29.79R
HARRISBURG*    MOSUNNY   66  40  39 NW18G29   29.78S
ROBINSON*      CLOUDY    56  45  65 N9G20     29.77S
CARMI*         MOSUNNY   63  45  52 NW22G31   29.77F
$$

ABBREVIATIONS USED IN REMARKS
   TC - TEMPERATURE IN CELSIUS
  WCI - WIND CHILL INDEX
   HX - HEAT INDEX
  VSB - VISIBILITY
$$





USA.gov is the U.S. government's official web portal to all federal, state and local government web resources and services.